TimeEDT,TemperatureF,Dew PointF,Humidity,Sea Level PressureIn,VisibilityMPH,Wind Direction,Wind SpeedMPH,Gust SpeedMPH,PrecipitationIn,Events,Conditions,WindDirDegrees,DateUTC
12:53 AM,60.1,39.9,47,30.00,10.0,WNW,6.9,-,N/A,,Clear,300,2013-04-02 04:53:00
1:53 AM,57.9,41.0,53,30.01,10.0,NW,5.8,-,N/A,,Clear,310,2013-04-02 05:53:00
2:53 AM,57.0,39.9,53,30.02,10.0,WNW,5.8,-,N/A,,Clear,300,2013-04-02 06:53:00
3:53 AM,55.9,39.0,53,30.02,10.0,WNW,4.6,-,N/A,,Clear,290,2013-04-02 07:53:00
4:53 AM,55.0,39.0,55,30.03,10.0,WNW,4.6,-,N/A,,Clear,300,2013-04-02 08:53:00
5:53 AM,53.1,39.0,59,30.06,10.0,Calm,Calm,-,N/A,,Clear,0,2013-04-02 09:53:00
6:53 AM,53.1,39.0,59,30.08,10.0,WNW,3.5,-,N/A,,Clear,300,2013-04-02 10:53:00
7:53 AM,53.1,39.0,59,30.12,10.0,WNW,6.9,-,N/A,,Clear,300,2013-04-02 11:53:00
8:53 AM,55.9,39.0,53,30.14,10.0,NNW,6.9,-,N/A,,Clear,340,2013-04-02 12:53:00
9:53 AM,57.0,39.0,51,30.14,10.0,NNW,9.2,-,N/A,,Clear,340,2013-04-02 13:53:00
10:53 AM,61.0,35.1,38,30.14,10.0,Variable,6.9,-,N/A,,Clear,0,2013-04-02 14:53:00
11:53 AM,63.0,32.0,31,30.15,10.0,WNW,8.1,-,N/A,,Clear,300,2013-04-02 15:53:00
12:53 PM,64.9,32.0,29,30.12,10.0,SW,4.6,-,N/A,,Clear,220,2013-04-02 16:53:00
1:53 PM,69.1,30.9,24,30.09,10.0,WNW,8.1,-,N/A,,Clear,300,2013-04-02 17:53:00
2:53 PM,71.1,33.1,25,30.06,10.0,NW,8.1,17.3,N/A,,Clear,310,2013-04-02 18:53:00
3:53 PM,72.0,34.0,25,30.05,10.0,NW,6.9,19.6,N/A,,Clear,310,2013-04-02 19:53:00
4:53 PM,72.0,37.0,28,30.04,10.0,WNW,12.7,17.3,N/A,,Clear,300,2013-04-02 20:53:00
5:53 PM,72.0,36.0,27,30.04,10.0,WNW,9.2,19.6,N/A,,Clear,300,2013-04-02 21:53:00
6:53 PM,71.1,37.0,29,30.05,10.0,WNW,8.1,-,N/A,,Clear,290,2013-04-02 22:53:00
7:53 PM,68.0,39.0,35,30.06,10.0,Calm,Calm,-,N/A,,Clear,0,2013-04-02 23:53:00
8:53 PM,66.0,39.9,38,30.06,10.0,Calm,Calm,-,N/A,,Clear,0,2013-04-03 00:53:00
9:53 PM,64.9,39.9,40,30.08,10.0,West,5.8,-,N/A,,Clear,280,2013-04-03 01:53:00
10:53 PM,64.0,37.9,38,30.09,10.0,WNW,6.9,-,N/A,,Clear,290,2013-04-03 02:53:00
11:53 PM,61.0,39.0,44,30.10,10.0,NNW,6.9,-,N/A,,Clear,330,2013-04-03 03:53:00